Effective Sunday, March 17, 2024, the National Weather Service National Data Buoy Center will discontinue its Dial-A-Buoy Interactive Voice Response system. For more information, see Service Change Notice 24-06 (PDF).

Station FRDW1 - 9449880 - Friday Harbor, WA Image indicating link to RSS feed of recent meteorological observations for station FRDW1


Conditions at FRDW1 as of
(3:36 am PST)
1136 GMT on 03/03/2024:
     

Click on the graph icon in the table below to see a time series plot of the last five days of that observation.

5-day plot - Wind Direction Wind Direction (WDIR): SE ( 130 deg true )
5-day plot - Wind Speed Wind Speed (WSPD): 8.9 kts
5-day plot - Wind Gust Wind Gust (GST): 14.0 kts
5-day plot - Atmospheric Pressure Atmospheric Pressure (PRES):29.56 in
5-day plot - Air Temperature Air Temperature (ATMP): 40.1 °F
5-day plot - Water Temperature Water Temperature (WTMP): 46.9 °F
5-day plot - Wind Chill Wind Chill (CHILL): 33.6 °F
5-day plot - Wind Speed at 10 Meters Wind Speed at 10 meters (WSPD10M): 9.7 kts
5-day plot - Wind Speed at 20 Meters Wind Speed at 20 meters (WSPD20M): 9.7 kts
5-day plot -  Wind Speed, Wind Gust and Atmospheric Pressure Combined plot of Wind Speed, Gust, and Air Pressure
NOS Water Level Observation Network Water Level
Previous observations
TIME
(PST)
5-day plot - Wind Direction
WDIR
 
5-day plot - Wind Speed
WSPD
kts
5-day plot - Wind Gust
GST
kts
5-day plot - Wave Height
WVHT
ft
5-day plot - Dominant Wave Period
DPD
sec
5-day plot - Average Wave Period
APD
sec
5-day plot - Mean Wave Direction
MWD
 
5-day plot - Atmospheric Pressure
PRES
in
5-day plot - Pressure Tendency
PTDY
in
5-day plot - Air Temperature
ATMP
°F
5-day plot - Water Temperature
WTMP
°F
5-day plot - Dew Point
DEWP
°F
5-day plot - Salinity
SAL
psu
5-day plot - Visibility
VIS
nmi
5-day plot - Tide (above MLLW)
TIDE
ft
2024-03-03 03:30 am SE 8.9 13.0----29.56- 40.1 46.9----
2024-03-03 03:24 am SE 9.9 12.0----29.56- 39.9 46.9----
2024-03-03 03:18 amSSE 8.0 13.0----29.56- 39.9 46.9----
2024-03-03 03:12 amESE 8.9 14.0----29.56- 39.7 46.9----
2024-03-03 03:06 am SE 8.9 15.0----29.56- 39.9 46.9----
2024-03-03 03:00 am SE 8.0 11.1----29.56+0.01 39.9 46.9----
2024-03-03 02:54 am SE 7.0 13.0----29.56- 40.1 46.9----
2024-03-03 02:48 am SE 8.9 17.1----29.56- 39.9 46.9----
2024-03-03 02:42 amSSE 11.1 17.1----29.56- 40.1 46.9----
2024-03-03 02:36 amSSE 12.0 18.1----29.56- 40.3 46.9----
2024-03-03 02:30 amSSE 14.0 19.0----29.56- 40.1 46.9----
2024-03-03 02:24 amSSE 13.0 20.0----29.56- 40.3 46.9----
2024-03-03 02:18 am SE 9.9 17.1----29.56- 40.5 46.9----
2024-03-03 02:12 am S 14.0 19.0----29.57- 40.3 46.9----
2024-03-03 02:06 amSSE 14.0 18.1----29.57- 40.1 46.9----
2024-03-03 02:00 am S 13.0 22.0----29.57+0.02 40.1 46.9----
2024-03-03 01:54 amSSE 11.1 19.0----29.57- 40.1 46.9----
2024-03-03 01:48 amSSE 11.1 21.0----29.57- 40.3 46.9----
2024-03-03 01:42 amSSE 13.0 19.0----29.57- 40.1 46.9----
2024-03-03 01:36 amSSE 9.9 21.0----29.56- 40.3 46.9----
2024-03-03 01:30 amSSE 11.1 19.0----29.56- 40.3 46.9----
2024-03-03 01:24 amSSE 8.0 13.0----29.56- 40.1 46.9----
2024-03-03 01:18 amSSE 8.0 18.1----29.56- 40.1 46.9----
2024-03-03 01:12 am SE 9.9 14.0----29.56- 40.1 46.9----
2024-03-03 01:06 am SE 9.9 14.0----29.55- 39.9 46.9----
2024-03-03 01:00 am SE 9.9 13.0----29.56+0.01 39.7 46.9----
2024-03-03 12:54 amSSE 8.0 12.0----29.56- 39.7 46.9----
2024-03-03 12:48 am SE 11.1 14.0----29.56- 39.6 46.9----
2024-03-03 12:42 am SE 9.9 15.0----29.55- 39.4 46.9----
2024-03-03 12:36 am SE 8.0 15.9----29.55- 39.4 46.9----
2024-03-03 12:30 amESE 8.9 18.1----29.55- 39.7 46.9----
2024-03-03 12:24 amESE 9.9 13.0----29.55- 39.6 46.9----
2024-03-03 12:18 am SE 8.0 12.0----29.55- 39.7 46.9----
2024-03-03 12:12 am SE 9.9 14.0----29.55- 39.6 46.9----
2024-03-03 12:06 amSSE 8.0 14.0----29.55- 39.7 46.9----
2024-03-03 12:00 amSSE 8.9 13.0----29.55+0.01 39.7 46.9----
2024-03-02 11:54 pmSSE 8.9 13.0----29.55- 39.7 46.9----
2024-03-02 11:48 pm SE 8.9 14.0----29.55- 39.9 46.9----
2024-03-02 11:42 pmESE 8.9 15.0----29.54- 39.9 46.9----
2024-03-02 11:36 pmESE 12.0 15.0----29.54- 39.9 46.9----
2024-03-02 11:30 pmESE 8.0 11.1----29.54- 39.7 46.9----
2024-03-02 11:24 pm SE 7.0 12.0----29.55- 39.9 46.9----
2024-03-02 11:18 pm SE 8.9 14.0----29.55- 39.7 46.9----
2024-03-02 11:12 pm SE 8.0 14.0----29.55- 39.7 46.9----
2024-03-02 11:06 pmESE 7.0 12.0----29.55- 39.9 46.9----
2024-03-02 11:00 pm SE 6.0 8.9----29.54+0.01 39.6 46.9----
2024-03-02 10:54 pmESE 8.0 9.9----29.54- 39.6 46.9----
2024-03-02 10:48 pm SE 8.0 15.0----29.55- 39.7 46.9----
2024-03-02 10:42 pm SE 7.0 12.0----29.55- 39.6 46.9----
2024-03-02 10:36 pm SE 8.9 14.0----29.55- 39.7 46.9----
2024-03-02 10:30 pmSSE 8.9 13.0----29.55- 39.7 46.9----
2024-03-02 10:24 pmSSE 8.0 15.0----29.54- 39.6 47.1----
2024-03-02 10:18 pm SE 7.0 9.9----29.54- 39.6 47.1----
2024-03-02 10:12 pmESE 5.1 11.1----29.54- 39.9 46.9----
2024-03-02 10:06 pmSSE 8.0 15.0----29.54- 39.7 46.9----
2024-03-02 10:00 pm SE 7.0 13.0----29.54+0.01 39.7 46.9----
2024-03-02 09:54 pmSSE 7.0 11.1----29.54- 39.7 46.9----
2024-03-02 09:48 pmSSE 6.0 8.9----29.54- 39.7 46.9----
2024-03-02 09:42 pmSSE 7.0 12.0----29.54- 39.6 46.9----
2024-03-02 09:36 pmSSE 8.0 14.0----29.54- 39.7 47.1----
2024-03-02 09:30 pmESE 8.0 13.0----29.54- 39.6 47.1----
2024-03-02 09:24 pm SE 5.1 12.0----29.54- 39.7 47.1----
2024-03-02 09:18 pmSSE 6.0 9.9----29.54- 39.6 47.1----
2024-03-02 09:12 pmESE 8.0 12.0----29.54- 39.6 47.1----
2024-03-02 09:06 pm SE 6.0 8.0----29.54- 39.6 47.1----
2024-03-02 09:00 pm SE 6.0 11.1----29.54+0.03 39.4 47.1----
2024-03-02 08:54 pmESE 6.0 8.9----29.54- 39.6 47.1----
2024-03-02 08:48 pmESE 7.0 8.9----29.54- 39.2 47.1----
2024-03-02 08:42 pmESE 8.0 9.9----29.54- 39.4 47.1----
2024-03-02 08:36 pm SE 8.0 11.1----29.54- 39.6 47.1----
2024-03-02 08:30 pm SE 7.0 11.1----29.53- 39.9 47.1----
2024-03-02 08:24 pmESE 5.1 8.9----29.53- 39.9 46.9----
2024-03-02 08:18 pm SE 5.1 8.0----29.53- 39.9 46.9----
2024-03-02 08:12 pmSSE 7.0 11.1----29.53- 40.1 46.9----
2024-03-02 08:06 pmSSE 8.0 11.1----29.53- 39.9 46.9----
2024-03-02 08:00 pmESE 8.0 9.9----29.53+0.02 40.1 47.1----
2024-03-02 07:54 pm SE 6.0 9.9----29.53- 40.3 47.1----
2024-03-02 07:48 pmESE 6.0 8.9----29.53- 40.5 47.1----
2024-03-02 07:42 pm SE 5.1 8.0----29.53- 40.3 46.9----
2024-03-02 07:36 pm SE 6.0 9.9----29.52- 40.3 46.9----
2024-03-02 07:30 pm SE 5.1 8.9----29.53- 40.3 46.9----
2024-03-02 07:24 pmESE 7.0 8.0----29.53- 40.3 46.9----
2024-03-02 07:18 pmESE 6.0 8.0----29.53- 40.3 46.9----
2024-03-02 07:12 pmESE 6.0 8.9----29.53- 40.3 46.9----
2024-03-02 07:06 pmESE 6.0 8.9----29.53- 40.1 46.9----
2024-03-02 07:00 pmESE 5.1 8.0----29.53+0.03 40.1 46.9----
2024-03-02 06:54 pm SE 4.1 7.0----29.53- 39.9 46.9----
2024-03-02 06:48 pm E 5.1 8.0----29.53- 39.7 46.9----
2024-03-02 06:42 pm E 6.0 8.0----29.52- 39.9 46.9----
2024-03-02 06:36 pm E 6.0 9.9----29.52- 39.6 46.9----
2024-03-02 06:30 pm E 8.0 9.9----29.52- 39.6 46.9----
2024-03-02 06:24 pm E 8.0 9.9----29.52- 39.6 46.9----
2024-03-02 06:18 pm E 8.0 8.9----29.52- 39.2 46.9----
2024-03-02 06:12 pm E 7.0 8.9----29.52- 39.4 46.9----
2024-03-02 06:06 pm E 6.0 9.9----29.51- 39.4 46.9----
2024-03-02 06:00 pm E 5.1 7.0----29.51+0.03 39.6 46.9----
2024-03-02 05:54 pm E 7.0 9.9----29.51- 39.2 47.1----
2024-03-02 05:48 pm E 8.0 8.9----29.51- 39.4 47.1----
2024-03-02 05:42 pmESE 7.0 9.9----29.51- 39.6 47.1----
2024-03-02 05:36 pmESE 7.0 9.9----29.51- 39.6 47.1----
2024-03-02 05:30 pmESE 7.0 11.1----29.51- 39.7 47.1----
2024-03-02 05:24 pmSSE 6.0 11.1----29.51- 40.3 47.1----
2024-03-02 05:18 pmSSE 8.0 9.9----29.51- 40.1 47.1----
2024-03-02 05:12 pmSSE 6.0 9.9----29.51- 39.9 47.1----
2024-03-02 05:06 pmESE 6.0 11.1----29.51- 39.9 47.1----
2024-03-02 05:00 pm E 8.0 12.0----29.51+0.05 39.9 47.1----
2024-03-02 04:54 pmESE 7.0 12.0----29.51- 39.9 47.1----
2024-03-02 04:48 pm E 8.0 13.0----29.51- 40.3 47.1----
2024-03-02 04:42 pmESE 8.0 12.0----29.51- 40.5 47.1----
2024-03-02 04:36 pmESE 7.0 12.0----29.51- 40.6 47.1----
2024-03-02 04:30 pm E 8.9 11.1----29.50- 40.1 47.1----
2024-03-02 04:24 pmESE 8.9 12.0----29.50- 40.3 47.1----
2024-03-02 04:18 pm E 8.0 11.1----29.50- 40.3 47.1----
2024-03-02 04:12 pm E 8.0 9.9----29.50- 40.3 47.1----
2024-03-02 04:06 pmESE 7.0 12.0----29.50- 40.3 47.1----
2024-03-02 04:00 pm E 7.0 9.9----29.50- 40.3 47.1----
2024-03-02 03:54 pm E 8.0 9.9----29.50- 40.1 47.1----
2024-03-02 03:48 pm E 8.9 11.1----29.49- 40.3 47.1----
2024-03-02 03:42 pmENE 8.9 12.0----29.49- 40.3 47.1----
2024-03-02 03:36 pm E 11.1 12.0----29.49- 40.3 47.1----
2024-03-02 03:30 pm E 8.9 12.0----29.49- 39.9 47.1----
2024-03-02 03:24 pmESE 8.9 11.1----29.49- 39.9 47.1----
2024-03-02 03:18 pm E 7.0 12.0----29.49- 40.3 46.9----
2024-03-02 03:12 pm E 9.9 12.0----29.48- 39.9 46.9----
2024-03-02 03:06 pm E 9.9 12.0----29.48- 39.7 46.9----
2024-03-02 03:00 pm E 8.9 12.0----29.48+0.05 39.9 46.9----
2024-03-02 02:54 pm E 12.0 13.0----29.48- 39.7 46.9----
2024-03-02 02:48 pm E 12.0 13.0----29.48- 39.4 46.9----
2024-03-02 02:42 pm E 11.1 12.0----29.47- 39.2 46.9----
2024-03-02 02:36 pm E 11.1 12.0----29.47- 39.2 46.9----
2024-03-02 02:30 pm E 9.9 11.1----29.47- 39.0 46.9----
2024-03-02 02:24 pm E 8.9 11.1----29.47- 38.8 46.9----
2024-03-02 02:18 pm E 8.9 13.0----29.46- 39.2 46.9----
2024-03-02 02:12 pm E 9.9 12.0----29.46- 39.2 46.9----
2024-03-02 02:06 pm E 8.0 8.9----29.46- 39.9 46.9----
2024-03-02 02:00 pmESE 8.0 9.9----29.46+0.05 40.5 46.9----
2024-03-02 01:54 pmSSE 5.1 6.0----29.46- 41.7 46.9----
2024-03-02 01:48 pm S 2.9 5.1----29.46- 41.9 46.9----
2024-03-02 01:42 pm S 5.1 6.0----29.45- 41.9 46.9----
2024-03-02 01:36 pmSSW 5.1 7.0------ 41.9-----
2024-03-02 01:30 pm SW 5.1 7.0------ 41.9-----
2024-03-02 01:24 pm SW 6.0 8.0------ 41.9-----
2024-03-02 01:18 pm SW 7.0 8.9------ 41.9-----
2024-03-02 01:12 pm SW 8.9 9.9------ 41.7-----
2024-03-02 01:06 pmWSW 7.0 13.0------ 41.7-----
2024-03-02 01:00 pmWSW 7.0 8.9------ 41.7-----
2024-03-02 12:54 pmWSW 7.0 11.1------ 42.1-----
2024-03-02 12:48 pmWSW 8.9 11.1------ 42.1-----
2024-03-02 12:42 pmWSW 7.0 12.0------ 42.3-----
2024-03-02 12:36 pmWSW 8.0 15.0----29.44- 42.6 46.9----
2024-03-02 12:30 pm SW 8.0 11.1----29.44- 42.8 46.9----
2024-03-02 12:24 pm SW 8.0 12.0----29.43- 42.8 46.9----
2024-03-02 12:18 pm SW 9.9 12.0----29.43- 43.0 46.9----
2024-03-02 12:12 pmWSW 8.9 13.0----29.43- 43.0 46.9----
2024-03-02 12:06 pm SW 9.9 12.0----29.43- 42.8 46.9----
2024-03-02 12:00 pmWSW 8.9 14.0----29.43+0.08 42.8 46.9----
2024-03-02 11:54 amWSW 8.9 12.0----29.43- 42.6 47.1----
2024-03-02 11:48 amWSW 11.1 15.0----29.43- 42.4 47.1----
2024-03-02 11:42 amWSW 14.0 15.9----29.43- 42.6 47.1----
2024-03-02 11:36 amWSW 8.9 12.0----29.42- 42.4 47.1----
2024-03-02 11:30 am W 2.9 8.9----29.42- 43.0 47.1----
2024-03-02 11:24 amWSW 6.0 8.9----29.42- 42.8 47.1----
2024-03-02 11:18 amWSW 6.0 12.0----29.41- 43.0 47.1----
2024-03-02 11:12 amWSW 11.1 21.0----29.41- 42.4 46.9----
2024-03-02 11:06 amWSW 8.9 15.0----29.41- 42.6 46.9----
2024-03-02 11:00 amWSW 9.9 14.0----29.41+0.08 43.2 46.9----
2024-03-02 10:54 amSSW 4.1 8.9----29.40- 42.8 46.9----
2024-03-02 10:48 amWSW 8.0 14.0----29.40- 42.4 47.1----
2024-03-02 10:42 am SW 8.9 14.0----29.40- 42.3 47.1----
2024-03-02 10:36 am SW 8.0 12.0----29.40- 42.6 47.1----
2024-03-02 10:30 amWSW 8.9 13.0----29.39- 42.6 46.9----
2024-03-02 10:24 am SW 7.0 9.9----29.39- 42.4 46.9----
2024-03-02 10:18 am SW 8.0 12.0----29.39- 42.1 46.9----
2024-03-02 10:12 am SW 6.0 8.0----29.38- 41.9 46.9----
2024-03-02 10:06 am S 2.9 5.1----29.38- 42.1 46.9----
2024-03-02 10:00 am SW 6.0 8.0----29.38+0.08 41.2 46.9----
2024-03-02 09:54 amSSW 5.1 8.9----29.38- 41.5 46.9----
2024-03-02 09:48 amWSW 7.0 9.9----29.38- 41.2 46.9----
2024-03-02 09:42 am SW 5.1 8.0----29.38- 41.2 46.9----
2024-03-02 09:36 am SW 7.0 8.0----29.37- 41.0 46.9----
2024-03-02 09:30 am SW 6.0 8.9----29.37- 41.2 46.9----
2024-03-02 09:24 am SW 4.1 7.0----29.36- 41.0 46.9----
2024-03-02 09:18 am SW 5.1 8.0----29.36- 41.0 46.9----
2024-03-02 09:12 amWSW 2.9 6.0----29.36- 40.8 46.9----
2024-03-02 09:06 amWSW 1.0 4.1----29.35- 41.0 46.9----
2024-03-02 09:00 amSSW 2.9 4.1----29.35+0.07 41.0 46.9----
2024-03-02 08:54 amWSW 2.9 11.1----29.35- 40.6 46.9----
2024-03-02 08:48 amSSW 5.1 8.9----29.35- 40.6 46.9----
2024-03-02 08:42 am S 5.1 8.0----29.34- 40.5 46.9----
2024-03-02 08:36 am S 6.0 9.9----29.34- 40.6 46.9----
2024-03-02 08:30 amSSW 5.1 9.9----29.34- 40.5 46.9----
2024-03-02 08:24 am S 7.0 9.9----29.34- 40.6 46.9----
2024-03-02 08:18 amSSW 6.0 8.9----29.34- 40.3 46.9----
2024-03-02 08:12 am S 5.1 9.9----29.33- 40.1 46.9----
2024-03-02 08:06 amSSW 8.0 13.0----29.33- 39.9 46.9----
2024-03-02 08:00 am S 8.9 14.0----29.33+0.06 39.7 46.9----
2024-03-02 07:54 amSSW 9.9 15.0----29.32- 39.7 46.9----
2024-03-02 07:48 am S 5.1 8.0----29.32- 39.9 46.9----
2024-03-02 07:42 am S 5.1 8.9----29.31- 40.3 46.9----
2024-03-02 07:36 amSSE 6.0 12.0----29.31- 40.3 46.9----
2024-03-02 07:30 amSSE 8.0 13.0----29.31- 40.3 46.9----
2024-03-02 07:24 am S 7.0 12.0----29.31- 40.3 46.9----
2024-03-02 07:18 amSSE 8.0 12.0----29.31- 40.5 46.9----
2024-03-02 07:12 am S 7.0 8.9----29.31- 40.6 46.9----
2024-03-02 07:06 amSSE 6.0 9.9----29.30- 40.8 46.9----
2024-03-02 07:00 amSSE 6.0 9.9----29.30- 40.6 46.9----
2024-03-02 06:54 am SE 2.9 6.0----29.30- 40.5 46.9----
2024-03-02 06:48 amESE 5.1 7.0----29.30- 40.1 46.9----
2024-03-02 06:42 amSSE 5.1 7.0----29.30- 40.1 46.9----
2024-03-02 06:36 amESE 5.1 8.9----29.29- 40.3 46.9----
2024-03-02 06:30 amESE 7.0 9.9----29.29- 40.1 46.9----
2024-03-02 06:24 amESE 8.9 12.0----29.28- 40.1 46.9----
2024-03-02 06:18 amESE 8.0 12.0----29.28- 40.3 46.9----
2024-03-02 06:12 amESE 8.9 14.0----29.28- 40.3 46.9----
2024-03-02 06:06 amESE 9.9 13.0----29.28- 40.1 46.9----
2024-03-02 06:00 am E 11.1 15.0----29.28+0.00 40.3 46.9----
2024-03-02 05:54 am E 9.9 13.0----29.27- 40.1 46.9----
2024-03-02 05:48 amESE 8.9 13.0----29.27- 39.9 46.9----
2024-03-02 05:42 amESE 8.9 13.0----29.27- 39.9 46.9----
2024-03-02 05:36 am E 12.0 15.0----29.27- 39.6 46.9----
2024-03-02 05:30 am E 11.1 13.0----29.27- 39.7 46.9----
2024-03-02 05:24 am E 8.9 13.0----29.27- 39.7 46.9----
2024-03-02 05:18 am E 11.1 14.0----29.27- 39.7 46.9----
2024-03-02 05:12 am E 11.1 13.0----29.27- 39.7 46.9----
2024-03-02 05:06 amESE 12.0 14.0----29.27- 39.7 46.9----
2024-03-02 05:00 amESE 8.9 12.0----29.27+0.00 39.6 46.9----
2024-03-02 04:54 amESE 8.0 13.0----29.27- 39.7 46.9----
2024-03-02 04:48 amESE 8.9 15.0----29.27- 39.6 46.9----
2024-03-02 04:42 amESE 8.9 14.0----29.27- 39.6 46.9----
2024-03-02 04:36 amESE 9.9 14.0------ 39.4 46.9----
2024-03-02 04:30 amESE 9.9 12.0------ 39.2 46.9----
2024-03-02 04:24 am E 8.9 12.0------ 38.8 46.9----
2024-03-02 04:18 am E 8.9 12.0------ 38.3 46.9----
2024-03-02 04:12 am E 8.0 12.0------ 37.9 46.9----
2024-03-02 04:06 am E 9.9 13.0------ 37.9 46.9----
2024-03-02 04:00 am E 9.9 14.0------ 38.1 46.9----
2024-03-02 03:54 am E 12.0 15.0------ 38.1 46.9----